CW1662 Weather Reports


Display with metric or nautical units.
time (UTC)temp
F
wind
direction
speed
MPH
gust
MPH
rain 1hr
in
rain 24hr
in
rain mn
in
humidity
%
barometer
mb
20260905162840 79 323 1.0 8.0 0.00 0.00 0.00 73 1011.7
20260905162344 79 355 3.0 8.0 0.00 0.00 0.00 74 1011.7
20260905161828 80 15 2.0 7.0 0.00 0.00 0.00 73 1011.7
20260905161333 80 13 3.0 6.0 0.00 0.00 0.00 73 1011.9
20260905160838 80 321 3.0 6.0 0.00 0.00 0.00 74 1011.9
20260905160342 79 5 5.0 7.0 0.00 0.00 0.00 73 1011.9
20260905155831 79 11 1.0 7.0 0.00 0.00 0.00 75 1012.0
20260905155334 79 350 1.0 6.0 0.00 0.00 0.00 76 1012.0
20260905154842 79 9 3.0 9.0 0.00 0.00 0.00 76 1012.0
20260905154346 79 331 5.0 9.0 0.00 0.00 0.00 76 1011.9
20260905153830 79 5 2.0 4.0 0.00 0.00 0.00 77 1011.9
20260905153353 80 13 1.0 4.0 0.00 0.00 0.00 77 1012.0
20260905152839 80 85 0.0 4.0 0.00 0.00 0.00 76 1012.0
20260905152326 80 65 0.0 4.0 0.00 0.00 0.00 77 1012.0
20260905151830 80 355 1.0 4.0 0.00 0.00 0.00 79 1011.9
20260905151335 79 98 0.0 4.0 0.00 0.00 0.00 79 1011.9
20260905150839 79 9 2.0 5.0 0.00 0.00 0.00 79 1012.0
20260905150344 79 73 1.0 5.0 0.00 0.00 0.00 80 1012.2
20260905145833 78 23 2.0 4.0 0.00 0.00 0.00 81 1012.1
20260905145336 78 5 1.0 4.0 0.00 0.00 0.00 81 1012.2
20260905144841 78 355 1.0 2.0 0.00 0.00 0.00 81 1012.2
20260905144325 78 9 0.0 2.0 0.00 0.00 0.00 81 1012.1
20260905143833 78 9 1.0 2.0 0.00 0.00 0.00 80 1012.1
20260905143358 78 93 0.0 1.0 0.00 0.00 0.00 81 1012.1
20260905142841 79 93 0.0 1.0 0.00 0.00 0.00 83 1012.0
20260905142323 78 93 0.0 1.0 0.00 0.00 0.00 82 1012.0
20260905141851 78 93 0.0 2.0 0.00 0.00 0.00 82 1011.9
20260905141355 78 93 0.0 2.0 0.00 0.00 0.00 82 1011.9
20260905140838 79 48 0.0 2.0 0.00 0.00 0.00 82 1011.9
20260905140326 78 84 0.0 3.0 0.00 0.00 0.00 82 1011.7
20260905135831 78 147 1.0 4.0 0.00 0.00 0.00 83 1011.6
20260905135354 78 142 0.0 4.0 0.00 0.00 0.00 84 1011.6
20260905134842 78 23 1.0 3.0 0.00 0.00 0.00 84 1011.5
20260905134346 78 23 1.0 2.0 0.00 0.00 0.00 84 1011.4
20260905133829 78 322 1.0 3.0 0.00 0.00 0.00 85 1011.4
20260905133336 78 322 1.0 4.0 0.00 0.00 0.00 85 1011.4
20260905132844 78 325 3.0 4.0 0.00 0.00 0.00 84 1011.4
20260905132327 78 324 2.0 4.0 0.00 0.00 0.00 85 1011.3
20260905131831 78 9 2.0 4.0 0.00 0.00 0.00 84 1011.3
20260905131337 78 339 2.0 3.0 0.00 0.00 0.00 84 1011.3
20260905130905 77 315 2.0 4.0 0.00 0.00 0.00 85 1011.4
20260905130329 77 320 1.0 4.0 0.00 0.00 0.00 87 1011.3
20260905125833 77 340 1.0 4.0 0.00 0.00 0.00 86 1011.3
20260905125356 77 322 3.0 4.0 0.00 0.00 0.00 88 1011.4
20260905124827 76 221 2.0 3.0 0.00 0.00 0.00 88 1011.3
20260905124332 76 221 1.0 3.0 0.00 0.00 0.00 89 1011.3
20260905123856 76 221 1.0 2.0 0.00 0.00 0.00 90 1011.3
20260905123340 76 221 0.0 2.0 0.00 0.00 0.00 90 1011.2
20260905122826 76 221 1.0 2.0 0.00 0.00 0.00 92 1011.1
20260905122333 76 221 0.0 2.0 0.00 0.00 0.00 92 1011.0
20260905121858 76 221 0.0 1.0 0.00 0.00 0.00 92 1011.0
20260905121341 76 221 0.0 1.0 0.00 0.00 0.00 92 1011.0
20260905120826 75 221 0.0 1.0 0.00 0.00 0.00 92 1011.0
20260905120330 75 221 0.0 1.0 0.00 0.00 0.00 93 1011.0
20260905115855 75 221 0.0 0.0 0.00 0.00 0.00 92 1011.0
20260905115338 75 221 0.0 1.0 0.00 0.00 0.00 92 1011.0
20260905114902 75 221 0.0 1.0 0.00 0.00 0.00 93 1011.1
20260905114326 75 221 0.0 1.0 0.00 0.00 0.00 93 1011.1
20260905113834 74 221 0.0 0.0 0.00 0.00 0.00 93 1010.9
20260905113359 74 221 0.0 0.0 0.00 0.00 0.00 93 1011.0
20260905112843 74 221 0.0 0.0 0.00 0.00 0.00 93 1011.0
20260905112326 74 221 0.0 0.0 0.00 0.00 0.00 93 1010.9
20260905111850 74 221 0.0 1.0 0.00 0.00 0.00 93 1010.9
20260905111334 74 221 0.0 1.0 0.00 0.00 0.00 93 1010.8
20260905110839 74 221 0.0 0.0 0.00 0.00 0.00 93 1010.8
20260905110403 74 221 0.0 0.0 0.00 0.00 0.00 93 1010.8
20260905105827 74 221 0.0 0.0 0.00 0.00 0.00 93 1010.8
20260905105331 74 221 0.0 0.0 0.00 0.00 0.00 93 1010.8
20260905104835 74 221 0.0 1.0 0.00 0.00 0.00 93 1010.8
20260905104343 74 221 0.0 1.0 0.00 0.00 0.00 93 1010.7
20260905103827 74 221 0.0 1.0 0.00 0.00 0.00 93 1010.5
20260905103336 74 221 0.0 0.0 0.00 0.00 0.00 93 1010.4
20260905102840 74 221 0.0 0.0 0.00 0.00 0.00 93 1010.3
20260905102344 74 221 0.0 2.0 0.00 0.00 0.00 93 1010.3
20260905101829 74 221 1.0 2.0 0.00 0.00 0.00 93 1010.4
20260905101333 74 221 0.0 0.0 0.00 0.00 0.00 93 1010.4
20260905100838 74 221 0.0 0.0 0.00 0.00 0.00 93 1010.2
20260905100341 74 221 0.0 0.0 0.00 0.00 0.00 93 1010.2
20260905095828 73 221 0.0 0.0 0.00 0.00 0.00 93 1010.1
20260905095334 73 221 0.0 0.0 0.00 0.00 0.00 93 1010.1
20260905094842 73 221 0.0 0.0 0.00 0.00 0.00 93 1010.1
20260905094330 73 221 0.0 0.0 0.00 0.00 0.00 92 1010.1
20260905093835 73 221 0.0 1.0 0.00 0.00 0.00 92 1010.1
20260905093339 73 221 0.0 1.0 0.00 0.00 0.00 92 1010.2
20260905092844 73 221 0.0 0.0 0.00 0.00 0.00 92 1010.3
20260905092327 73 221 0.0 0.0 0.00 0.00 0.00 92 1010.1
20260905091852 73 221 0.0 0.0 0.00 0.00 0.00 92 1010.2
20260905091336 73 221 0.0 0.0 0.00 0.00 0.00 92 1010.1
20260905090840 73 221 0.0 0.0 0.00 0.00 0.00 92 1010.1
20260905090325 74 221 0.0 0.0 0.00 0.00 0.00 92 1010.1
20260905085830 74 221 0.0 1.0 0.00 0.00 0.00 92 1010.2
20260905085332 74 221 0.0 1.0 0.00 0.00 0.00 92 1010.2
20260905084840 73 221 0.0 0.0 0.00 0.00 0.00 92 1010.2
20260905084328 73 221 0.0 0.0 0.00 0.00 0.00 92 1010.1
20260905083833 73 221 0.0 0.0 0.00 0.00 0.00 92 1010.2
20260905083337 73 221 0.0 0.0 0.00 0.00 0.00 92 1010.1
20260905082902 73 221 0.0 0.0 0.00 0.00 0.00 92 1010.2
20260905082324 73 221 0.0 0.0 0.00 0.00 0.00 91 1010.1
20260905081829 73 221 0.0 0.0 0.00 0.00 0.00 91 1010.0
20260905081334 73 221 0.0 0.0 0.00 0.00 0.00 91 1010.2
20260905080838 73 221 0.0 1.0 0.00 0.00 0.00 91 1010.2
20260905080326 74 221 0.0 1.0 0.00 0.00 0.00 91 1010.1
20260905075833 74 221 0.0 1.0 0.00 0.00 0.00 90 1010.1
20260905075357 74 221 0.0 0.0 0.00 0.00 0.00 90 1010.1
20260905074900 74 221 0.0 0.0 0.00 0.00 0.00 90 1010.3
20260905074331 74 221 0.0 1.0 0.00 0.00 0.00 90 1010.4
20260905073835 74 221 0.0 1.0 0.00 0.00 0.00 90 1010.4
20260905073322 74 221 0.0 2.0 0.00 0.00 0.00 90 1010.4
20260905072830 74 221 0.0 2.0 0.00 0.00 0.00 90 1010.5
20260905072333 74 221 1.0 2.0 0.00 0.00 0.00 90 1010.4
20260905071837 74 221 1.0 2.0 0.00 0.00 0.00 90 1010.5
20260905071323 74 148 0.0 2.0 0.00 0.00 0.00 90 1010.4
20260905070831 75 148 0.0 4.0 0.00 0.00 0.00 90 1010.4
20260905070336 74 148 1.0 4.0 0.00 0.00 0.00 90 1010.4
20260905065840 74 342 0.0 0.0 0.00 0.00 0.00 90 1010.6
20260905065328 75 342 0.0 0.0 0.00 0.00 0.00 89 1010.6
20260905064831 75 342 0.0 0.0 0.00 0.00 0.00 89 1010.7
20260905064339 75 342 0.0 1.0 0.00 0.00 0.00 89 1010.7
20260905063903 75 342 0.0 1.0 0.00 0.00 0.00 89 1010.9
20260905063327 75 342 0.0 0.0 0.00 0.00 0.00 88 1010.9
20260905062831 76 342 0.0 2.0 0.00 0.00 0.00 88 1010.9
20260905062335 76 342 0.0 2.0 0.00 0.00 0.00 88 1011.0
20260905061840 76 342 0.0 2.0 0.00 0.00 0.00 88 1011.0
20260905061324 76 342 0.0 3.0 0.00 0.00 0.00 87 1010.9
20260905060829 76 342 1.0 4.0 0.00 0.00 0.00 87 1011.0
20260905060333 76 192 0.0 4.0 0.00 0.00 0.00 87 1011.1
20260905055838 76 244 2.0 4.0 0.00 0.00 0.00 87 1011.1
20260905055326 77 244 2.0 4.0 0.00 0.00 0.00 87 1011.2
20260905054830 77 244 0.0 2.0 0.00 0.00 0.00 86 1011.2
20260905054335 77 244 0.0 2.0 0.00 0.00 0.00 86 1011.3
20260905053839 77 244 1.0 2.0 0.00 0.00 0.00 86 1011.3
20260905053344 77 244 0.0 3.0 0.00 0.00 0.00 86 1011.4
20260905052828 77 244 1.0 5.0 0.00 0.00 0.00 86 1011.5
20260905052331 77 258 2.0 6.0 0.00 0.00 0.00 86 1011.5
20260905051838 77 254 3.0 6.0 0.00 0.00 0.00 86 1011.7
20260905051343 77 273 2.0 5.0 0.00 0.00 0.00 86 1011.8
20260905050828 77 258 2.0 7.0 0.00 0.00 0.00 86 1011.8
20260905050336 77 274 4.0 7.0 0.00 0.00 0.00 87 1011.7
20260905045841 77 265 2.0 4.0 0.00 0.00 0.00 87 1011.8
20260905045325 77 268 1.0 7.0 0.00 0.00 0.00 87 1011.8
20260905044829 77 267 3.0 7.0 0.00 0.00 0.00 87 1011.8
20260905044334 77 265 3.0 5.0 0.00 0.00 0.00 87 1011.7
20260905043841 77 266 3.0 5.0 0.00 0.00 0.00 87 1011.7
20260905043325 77 268 2.0 4.0 0.00 0.00 0.00 87 1011.7
20260905042830 77 269 2.0 4.0 0.00 0.00 0.00 87 1011.6
20260905042334 77 258 2.0 4.0 0.00 0.00 0.00 87 1011.7
20260905041858 77 252 1.0 5.0 0.00 0.00 0.00 87 1011.8
20260905041342 77 252 3.0 5.0 0.00 0.00 0.00 87 1011.8
20260905040830 77 268 3.0 6.0 0.00 0.00 0.00 87 1011.8
20260905040335 77 261 2.0 6.0 0.00 0.00 0.00 88 1011.9
20260905035839 77 261 3.0 6.0 0.00 0.00 0.00 88 1011.9
20260905035342 77 250 4.0 6.0 0.00 0.00 0.00 88 1011.9
20260905034827 77 264 2.0 4.0 0.00 0.00 0.00 88 1011.8
20260905034331 77 259 1.0 5.0 0.00 0.09 0.00 88 1011.8
20260905033835 77 240 1.0 5.0 0.00 0.09 0.00 89 1011.8
20260905033342 77 254 2.0 4.0 0.00 0.09 0.00 89 1011.8
20260905032827 77 246 1.0 3.0 0.00 0.09 0.00 89 1011.7
20260905032331 77 281 1.0 3.0 0.00 0.09 0.00 90 1011.9
20260905031855 76 281 1.0 2.0 0.00 0.09 0.00 90 1011.8
20260905031339 76 281 1.0 2.0 0.00 0.09 0.00 89 1011.7
20260905030827 77 281 1.0 2.0 0.00 0.09 0.00 89 1011.7
20260905030332 77 281 1.0 2.0 0.00 0.09 0.00 89 1011.7
20260905025835 77 281 0.0 2.0 0.00 0.09 0.00 89 1011.6
20260905025339 77 281 0.0 1.0 0.00 0.09 0.00 89 1011.7
20260905024844 77 281 0.0 1.0 0.00 0.09 0.00 89 1011.6
20260905024328 77 281 0.0 1.0 0.00 0.14 0.00 89 1011.5
20260905023833 77 281 0.0 1.0 0.00 0.14 0.00 88 1011.4
20260905023337 77 281 0.0 0.0 0.00 0.14 0.00 88 1011.4
20260905022842 77 281 0.0 1.0 0.00 0.14 0.00 88 1011.5
20260905022325 78 281 0.0 1.0 0.00 0.14 0.00 88 1011.4
20260905021850 78 281 0.0 1.0 0.00 0.14 0.00 88 1011.4
20260905021338 78 281 0.0 1.0 0.00 0.14 0.00 88 1011.5
20260905020825 78 281 0.0 3.0 0.00 0.14 0.00 88 1011.4
20260905020330 78 281 1.0 3.0 0.00 0.14 0.00 89 1011.3
20260905015833 78 281 1.0 2.0 0.00 0.14 0.00 89 1011.3
20260905015337 78 281 0.0 0.0 0.00 0.14 0.00 88 1011.1
20260905014841 78 281 0.0 0.0 0.00 0.14 0.00 88 1011.1
20260905014326 79 281 0.0 0.0 0.00 0.53 0.00 88 1011.0
20260905013830 79 281 0.0 1.0 0.00 0.53 0.00 88 1011.1
20260905013335 79 281 0.0 1.0 0.00 0.53 0.00 87 1011.0
20260905012840 79 281 0.0 0.0 0.00 0.53 0.00 87 1011.2
20260905012327 80 281 0.0 2.0 0.00 0.53 0.00 87 1011.1
20260905011835 80 281 0.0 2.0 0.00 0.53 0.00 87 1011.2
20260905011339 80 281 0.0 2.0 0.00 0.53 0.00 86 1011.1
20260905010844 80 281 0.0 0.0 0.00 0.53 0.00 86 1011.2
20260905010328 80 281 0.0 0.0 0.00 0.53 0.00 85 1011.1
20260905005835 80 281 0.0 0.0 0.00 0.53 0.00 84 1011.2
20260905005342 80 281 0.0 1.0 0.00 0.53 0.00 84 1011.1
20260905004826 80 281 0.0 2.0 0.00 0.53 0.00 83 1011.1
20260905004331 80 281 0.0 1.0 0.00 0.53 0.00 83 1011.0
20260905003835 80 281 0.0 1.0 0.00 0.53 0.00 83 1011.1
20260905003323 80 281 0.0 1.0 0.00 0.53 0.00 83 1011.0
20260905002831 80 281 0.0 1.0 0.00 0.53 0.00 82 1010.8
20260905002334 81 281 0.0 1.0 0.00 0.53 0.00 82 1010.8
20260905001839 81 281 0.0 0.0 0.00 0.53 0.00 81 1010.8
20260905001343 81 281 0.0 0.0 0.00 0.53 0.00 81 1010.8
20260905000827 81 281 0.0 0.0 0.00 0.53 0.00 80 1010.7
20260905000335 82 281 0.0 0.0 0.00 0.53 0.00 79 1010.7
20260904235840 82 281 0.0 0.0 0.00 0.53 0.00 79 1010.7
20260904235344 82 281 0.0 0.0 0.00 0.53 0.00 79 1010.6
20260904234828 82 281 0.0 0.0 0.00 0.53 0.00 79 1010.7
20260904234333 83 281 0.0 0.0 0.00 0.53 0.00 78 1010.6
20260904233857 83 281 0.0 0.0 0.00 0.53 0.00 78 1010.7
20260904233325 83 281 0.0 0.0 0.00 0.53 0.00 78 1010.7
20260904232848 83 281 0.0 0.0 0.00 0.53 0.00 78 1010.7
20260904232334 83 281 0.0 0.0 0.00 0.53 0.00 79 1010.6
20260904231839 83 281 0.0 0.0 0.00 0.53 0.00 78 1010.8
20260904231343 84 281 0.0 0.0 0.00 0.53 0.00 78 1010.8
20260904230846 84 281 0.0 1.0 0.00 0.53 0.00 77 1010.7
20260904230353 84 281 0.0 1.0 0.00 0.53 0.00 77 1010.6
20260904225840 84 281 0.0 1.0 0.00 0.53 0.00 77 1010.7
20260904225343 84 281 0.0 2.0 0.00 0.53 0.00 77 1010.8
20260904224827 84 281 0.0 2.0 0.00 0.53 0.00 77 1011.0
20260904224335 85 281 0.0 2.0 0.00 0.53 0.00 77 1011.1
20260904223839 85 281 1.0 2.0 0.00 0.53 0.00 77 1011.2
20260904223327 85 281 1.0 2.0 0.00 0.53 0.00 77 1011.3
20260904222832 85 281 0.0 1.0 0.00 0.53 0.00 76 1011.3
20260904222336 85 281 0.0 1.0 0.00 0.53 0.00 76 1011.3
20260904221840 85 281 0.0 3.0 0.00 0.53 0.00 75 1011.2
20260904221325 85 281 0.0 3.0 0.00 0.53 0.00 74 1011.2
20260904220829 86 281 1.0 4.0 0.00 0.53 0.00 73 1011.0
20260904220333 86 281 1.0 4.0 0.00 0.53 0.00 72 1010.9
20260904215841 86 273 2.0 5.0 0.00 0.53 0.00 73 1010.9
20260904215344 86 272 1.0 5.0 0.00 0.53 0.00 73 1011.2
20260904214829 86 277 2.0 4.0 0.00 0.53 0.00 75 1011.2
20260904214333 86 280 2.0 4.0 0.00 0.53 0.00 72 1011.0
20260904213841 86 289 1.0 2.0 0.00 0.53 0.00 73 1011.1
20260904213328 86 289 1.0 2.0 0.00 0.53 0.00 73 1011.2
20260904212833 86 289 1.0 2.0 0.00 0.53 0.00 71 1011.2
20260904212357 86 289 1.0 2.0 0.00 0.53 0.00 71 1011.2
20260904211840 87 289 1.0 2.0 0.00 0.53 0.00 71 1011.2
20260904211324 87 289 2.0 4.0 0.00 0.53 0.00 70 1011.2
20260904210829 87 289 1.0 4.0 0.00 0.53 0.00 70 1011.2
20260904210334 87 289 2.0 3.0 0.00 0.53 0.00 70 1011.2
20260904205838 87 289 1.0 3.0 0.00 0.53 0.00 70 1011.3
20260904205342 87 289 2.0 3.0 0.00 0.53 0.00 70 1011.5
20260904204827 87 289 2.0 3.0 0.00 0.53 0.00 71 1011.6
20260904204335 87 289 2.0 3.0 0.00 0.53 0.00 72 1011.6
20260904203840 87 267 1.0 4.0 0.00 0.53 0.00 74 1011.7
20260904203344 87 267 1.0 4.0 0.00 0.53 0.00 73 1011.5
20260904202829 87 300 2.0 3.0 0.00 0.53 0.00 75 1011.5
20260904202332 87 300 2.0 3.0 0.00 0.53 0.00 74 1011.5
20260904201837 87 267 2.0 3.0 0.00 0.53 0.00 75 1011.4
20260904201340 87 267 1.0 2.0 0.00 0.53 0.00 75 1011.2
20260904200827 87 267 0.0 2.0 0.00 0.53 0.00 74 1011.2
20260904200333 87 267 1.0 2.0 0.00 0.53 0.00 75 1011.2
20260904195841 87 267 0.0 1.0 0.00 0.53 0.00 76 1011.2
20260904195329 87 267 0.0 1.0 0.00 0.53 0.00 74 1011.2
20260904194833 87 267 0.0 3.0 0.00 0.53 0.00 75 1011.3
20260904194337 88 267 1.0 3.0 0.00 0.53 0.00 74 1011.4
20260904193825 88 304 1.0 2.0 0.00 0.53 0.00 72 1011.5
20260904193330 88 304 1.0 1.0 0.00 0.53 0.00 74 1011.5
20260904192835 87 304 0.0 2.0 0.00 0.53 0.00 72 1011.5
20260904192357 87 304 1.0 2.0 0.00 0.53 0.00 74 1011.7
20260904191844 87 304 1.0 2.0 0.00 0.53 0.00 75 1011.7
20260904191328 87 304 1.0 3.0 0.00 0.53 0.00 75 1011.9
20260904190833 87 304 0.0 3.0 0.00 0.53 0.00 76 1011.9
20260904190337 87 304 0.0 3.0 0.00 0.53 0.00 73 1012.1
20260904185829 87 304 0.0 4.0 0.00 0.53 0.00 72 1012.0
20260904185333 87 268 1.0 4.0 0.00 0.53 0.00 73 1012.0
20260904184837 88 267 0.0 2.0 0.00 0.53 0.00 72 1011.9
20260904184342 88 267 0.0 2.0 0.00 0.53 0.00 73 1012.0
20260904183825 88 267 0.0 2.0 0.00 0.53 0.00 72 1012.0
20260904183353 88 267 0.0 3.0 0.00 0.53 0.00 69 1011.7
20260904182840 88 267 0.0 5.0 0.00 0.53 0.00 70 1012.0
20260904182343 88 267 0.0 5.0 0.00 0.53 0.00 70 1012.4
20260904181828 88 244 2.0 4.0 0.00 0.53 0.00 73 1012.6
20260904181352 88 231 1.0 3.0 0.00 0.53 0.00 69 1012.8
20260904180836 88 232 0.0 4.0 0.00 0.53 0.00 71 1012.8
20260904180340 88 194 1.0 5.0 0.00 0.53 0.00 72 1012.7
20260904175829 88 200 3.0 5.0 0.00 0.53 0.00 71 1012.8
20260904175334 88 200 1.0 4.0 0.00 0.53 0.00 72 1012.7
20260904174837 87 195 0.0 4.0 0.00 0.53 0.00 71 1012.8
20260904174402 87 197 1.0 4.0 0.00 0.53 0.00 72 1012.9
20260904173825 86 311 0.0 4.0 0.00 0.53 0.00 73 1013.0
20260904173330 87 264 1.0 3.0 0.00 0.53 0.00 73 1013.0
20260904172834 87 249 0.0 4.0 0.00 0.53 0.00 73 1012.9
20260904172338 87 249 0.0 4.0 0.00 0.53 0.00 72 1013.0
20260904171843 87 258 0.0 4.0 0.00 0.53 0.00 74 1013.1
20260904171327 86 221 1.0 5.0 0.00 0.53 0.00 73 1013.1
20260904170852 86 188 2.0 5.0 0.00 0.53 0.00 73 1013.3
20260904170335 86 266 2.0 6.0 0.00 0.53 0.00 74 1013.3
20260904165840 86 338 1.0 6.0 0.00 0.53 0.00 73 1013.2
20260904165327 86 207 1.0 5.0 0.00 0.53 0.00 73 1013.3
20260904164851 86 194 1.0 6.0 0.00 0.53 0.00 74 1013.4
20260904164337 86 273 2.0 6.0 0.00 0.53 0.00 74 1013.4
20260904163902 85 275 1.0 5.0 0.00 0.53 0.00 75 1013.4
20260904163326 85 275 0.0 5.0 0.00 0.53 0.00 72 1013.6